Regional Weather Roundup
Issued by NWS Cleveland, OH

Home | Current Version | Previous Version | Text Only | Print | Product List | Glossary Off
Versions: 1 2 3 4 5 6 7 8 9 10 11 12 13 14 15 16 17 18 19 20 21 22 23 24 25 26 27 28 29 30 31 32 33 34 35 36 37 38 39 40 41 42 43 44 45 46 47 48 49 50

000
ASUS41 KCLE 231800
RWRCLE
OHIO REGIONAL WEATHER ROUNDUP
NATIONAL WEATHER SERVICE WILMINGTON, OH
200 PM EDT TUE AUG 23 2016

NOTE: "FAIR" INDICATES FEW OR NO CLOUDS BELOW 12,000 FEET WITH NO
SIGNIFICANT WEATHER AND/OR OBSTRUCTIONS TO VISIBILITY.

OHZ001>008-015>018-024>027-034-035-043-044-231900-
   NORTHWEST OHIO

CITY           SKY/WX    TMP DP  RH WIND       PRES   REMARKS
DEFIANCE       FAIR      80  57  45 S12       30.26F
FINDLAY        FAIR      81  58  45 S10       30.27F
TOLEDO EXPRESS FAIR      78  58  49 SW8G17    30.26F
TOLEDO EXEC    FAIR      80  59  48 S13       30.27F
LIMA           FAIR      77  60  55 S6        30.28F
$$

OHZ009>014-019>023-028>033-038-089-231900-
   NORTHEAST OHIO

CITY           SKY/WX    TMP DP  RH WIND       PRES   REMARKS
CLE-HOPKINS    FAIR      81  53  37 SW7       30.30S
CLE-LAKEFRONT  FAIR      81  57  43 NW12      30.27S
CUY CO. ARPT   MOSUNNY   82  57  42 W6        30.29F
LORAIN-ELYRIA  FAIR      78  56  46 W6        30.29F
ASHTABULA      FAIR      77  58  51 SW7       30.30F
AKRON-CANTON   FAIR      79  52  38 SW7       30.30F
WOOSTER        NOT AVBL
MANSFIELD      FAIR      78  56  46 S6        30.30F
YOUNGSTOWN     FAIR      78  55  44 VRB5      30.30F
$$

OHZ042-051>053-060>062-070>072-077>081-231900-
  SOUTHWEST OHIO

CITY           SKY/WX    TMP DP  RH WIND       PRES   REMARKS
CINC-COVINGTON PTSUNNY   80  59  48 VRB5      30.28F
CINC-LUNKEN    FAIR      79  61  53 S6        30.27F
HAMILTON       FAIR      82  59  45 VRB3      30.28F
DAYTON         NOT AVBL
WRIGHT-PAT AFB NOT AVBL
DAYTON GENERAL FAIR      77  57  50 VRB3      30.28F
WILMINGTON     FAIR      77  59  53 VRB3      30.29F
$$

OHZ036-037-039>041-045>050-054>059-063>069-073>076-082>088-231900-
  CENTRAL AND SOUTHEAST OHIO

CITY           SKY/WX    TMP DP  RH WIND       PRES   REMARKS
COLUMBUS       FAIR      78  56  46 SE9       30.28F
OSU AIRPORT    FAIR      79  57  46 S9        30.29F
BOLTON FIELD   SUNNY     79  61  53 S6        30.30F
RICKENBACK AFB NOT AVBL
NEWARK         PTSUNNY   78  59  51 W7        30.29F
MARION         FAIR      78  57  48 VRB3      30.29F
LANCASTER      FAIR      80  58  46 VRB5      30.29F
ZANESVILLE     FAIR      79  58  48 S7        30.29F
NEW PHILLY     FAIR      81  54  39 MISG      30.30F
$$



USA.gov is the U.S. government's official web portal to all federal, state and local government web resources and services.